| time (UTC) | temp C | wind direction | speed KPH | gust KPH | rain 1hr cm | rain 24hr cm | rain mn cm | humidity % | barometer mb |
| 20260503002510 | 17 | 352 | 0.0 | 1.6 | 0.00 | 0.58 | 0.58 | 91 | 1012.5 |
| 20260503002008 | 17 | 260 | 0.0 | 8.0 | 0.00 | 0.58 | 0.58 | 90 | 1012.3 |
| 20260503001505 | 17 | 342 | 0.0 | 8.0 | 0.00 | 0.58 | 0.58 | 90 | 1012.1 |
| 20260503001001 | 17 | 237 | 0.0 | 8.0 | 0.00 | 0.58 | 0.58 | 90 | 1012.1 |
| 20260503000503 | 17 | 239 | 0.0 | 8.0 | 0.00 | 0.58 | 0.58 | 90 | 1012.0 |
| 20260503000112 | 17 | 264 | 0.0 | 4.8 | 0.00 | 0.58 | 0.58 | 90 | 1011.9 |
| 20260502235559 | 17 | 168 | 0.0 | 3.2 | 0.00 | 0.58 | 0.58 | 90 | 1011.9 |
| 20260502235503 | 17 | 258 | 0.0 | 3.2 | 0.00 | 0.58 | 0.58 | 90 | 1011.9 |
| 20260502235103 | 18 | 236 | 1.6 | 4.8 | 0.00 | 0.58 | 0.58 | 90 | 1011.8 |
| 20260502234559 | 18 | 310 | 0.0 | 8.0 | 0.00 | 0.58 | 0.58 | 90 | 1011.5 |
| 20260502234059 | 18 | 338 | 0.0 | 11.3 | 0.00 | 0.58 | 0.58 | 90 | 1011.1 |
| 20260502233555 | 18 | 253 | 0.0 | 11.3 | 0.00 | 0.58 | 0.58 | 90 | 1011.2 |
| 20260502233052 | 18 | 321 | 0.0 | 6.4 | 0.00 | 0.58 | 0.58 | 90 | 1011.2 |
| 20260502232551 | 18 | 332 | 1.6 | 4.8 | 0.00 | 0.58 | 0.58 | 90 | 1011.2 |
| 20260502231612 | 18 | 333 | 1.6 | 6.4 | 0.00 | 0.58 | 0.58 | 90 | 1010.8 |
| 20260502231048 | 18 | 203 | 1.6 | 6.4 | 0.00 | 0.58 | 0.58 | 90 | 1010.8 |
| 20260502230545 | 19 | 316 | 0.0 | 4.8 | 0.00 | 0.58 | 0.58 | 90 | 1010.5 |
| 20260502230050 | 19 | 195 | 0.0 | 9.7 | 0.00 | 0.58 | 0.58 | 90 | 1010.5 |
| 20260502225544 | 19 | 313 | 1.6 | 12.9 | 0.00 | 0.58 | 0.58 | 89 | 1010.6 |
| 20260502225048 | 20 | 96 | 1.6 | 12.9 | 0.00 | 0.58 | 0.58 | 89 | 1010.6 |
| 20260502224554 | 20 | 101 | 0.0 | 9.7 | 0.00 | 0.58 | 0.58 | 89 | 1010.4 |
| 20260502224043 | 21 | 323 | 0.0 | 9.7 | 0.00 | 0.58 | 0.58 | 89 | 1010.2 |
| 20260502223552 | 21 | 231 | 0.0 | 3.2 | 0.00 | 0.58 | 0.58 | 89 | 1010.1 |
| 20260502223041 | 21 | 303 | 0.0 | 8.0 | 0.00 | 0.58 | 0.58 | 89 | 1009.9 |
| 20260502222541 | 21 | 276 | 0.0 | 8.0 | 0.00 | 0.58 | 0.58 | 89 | 1009.8 |
| 20260502222041 | 21 | 268 | 0.0 | 6.4 | 0.00 | 0.58 | 0.58 | 89 | 1009.7 |
| 20260502221540 | 21 | 109 | 0.0 | 4.8 | 0.00 | 0.58 | 0.58 | 89 | 1009.3 |
| 20260502221040 | 21 | 202 | 0.0 | 9.7 | 0.00 | 0.58 | 0.58 | 90 | 1009.1 |
| 20260502220541 | 21 | 356 | 0.0 | 6.4 | 0.00 | 0.58 | 0.58 | 90 | 1008.9 |
| 20260502220046 | 21 | 216 | 0.0 | 6.4 | 0.00 | 0.58 | 0.58 | 91 | 1009.1 |
| 20260502215537 | 21 | 304 | 0.0 | 3.2 | 0.00 | 0.58 | 0.58 | 91 | 1009.1 |
| 20260502215051 | 20 | 301 | 0.0 | 3.2 | 0.00 | 0.58 | 0.58 | 91 | 1009.0 |
| 20260502214536 | 20 | 250 | 0.0 | 3.2 | 0.00 | 0.58 | 0.58 | 91 | 1009.1 |
| 20260502214040 | 20 | 229 | 0.0 | 1.6 | 0.00 | 0.58 | 0.58 | 92 | 1008.9 |
| 20260502213631 | 20 | 232 | 0.0 | 1.6 | 0.00 | 0.58 | 0.58 | 92 | 1009.0 |
| 20260502213031 | 20 | 275 | 0.0 | 6.4 | 0.00 | 0.58 | 0.58 | 92 | 1008.8 |
| 20260502212533 | 20 | 216 | 0.0 | 4.8 | 0.00 | 0.58 | 0.58 | 93 | 1008.9 |
| 20260502212032 | 20 | 237 | 0.0 | 1.6 | 0.00 | 0.58 | 0.58 | 93 | 1008.8 |
| 20260502211528 | 20 | 120 | 0.0 | 3.2 | 0.00 | 0.58 | 0.58 | 93 | 1008.7 |
| 20260502211027 | 20 | 278 | 0.0 | 3.2 | 0.00 | 0.58 | 0.58 | 93 | 1008.9 |
| 20260502210531 | 20 | 105 | 0.0 | 3.2 | 0.00 | 0.58 | 0.58 | 93 | 1008.9 |
| 20260502210026 | 19 | 302 | 0.0 | 4.8 | 0.00 | 0.58 | 0.58 | 93 | 1009.0 |
| 20260502205527 | 19 | 287 | 0.0 | 4.8 | 0.00 | 0.58 | 0.58 | 93 | 1009.0 |
| 20260502205023 | 19 | 309 | 0.0 | 4.8 | 0.00 | 0.58 | 0.58 | 93 | 1009.0 |
| 20260502204529 | 19 | 257 | 0.0 | 9.7 | 0.00 | 0.58 | 0.58 | 93 | 1009.0 |
| 20260502204024 | 19 | 255 | 0.0 | 9.7 | 0.00 | 0.58 | 0.58 | 93 | 1009.1 |
| 20260502203521 | 19 | 188 | 0.0 | 3.2 | 0.00 | 0.58 | 0.58 | 93 | 1009.1 |
| 20260502203021 | 19 | 285 | 0.0 | 4.8 | 0.00 | 0.58 | 0.58 | 93 | 1009.1 |
| 20260502202521 | 19 | 301 | 0.0 | 6.4 | 0.00 | 0.58 | 0.58 | 93 | 1009.2 |
| 20260502202024 | 20 | 332 | 0.0 | 6.4 | 0.00 | 0.58 | 0.58 | 93 | 1009.2 |
| 20260502201519 | 20 | 250 | 1.6 | 6.4 | 0.00 | 0.58 | 0.58 | 93 | 1009.2 |
| 20260502201023 | 20 | 283 | 1.6 | 11.3 | 0.00 | 0.58 | 0.58 | 93 | 1009.4 |
| 20260502200519 | 20 | 275 | 0.0 | 11.3 | 0.00 | 0.58 | 0.58 | 93 | 1009.4 |
| 20260502200022 | 20 | 312 | 3.2 | 9.7 | 0.00 | 0.58 | 0.58 | 92 | 1009.2 |
| 20260502195520 | 20 | 312 | 1.6 | 14.5 | 0.00 | 0.58 | 0.58 | 92 | 1009.3 |
| 20260502195015 | 20 | 227 | 3.2 | 14.5 | 0.00 | 0.58 | 0.58 | 92 | 1009.4 |
| 20260502194516 | 20 | 236 | 0.0 | 8.0 | 0.00 | 0.58 | 0.58 | 92 | 1009.4 |
| 20260502194113 | 20 | 224 | 1.6 | 8.0 | 0.00 | 0.58 | 0.58 | 92 | 1009.5 |
| 20260502193519 | 20 | 271 | 1.6 | 4.8 | 0.00 | 0.58 | 0.58 | 92 | 1009.4 |
| 20260502193010 | 20 | 302 | 1.6 | 9.7 | 0.00 | 0.58 | 0.58 | 92 | 1009.3 |
| 20260502192510 | 20 | 248 | 1.6 | 9.7 | 0.00 | 0.58 | 0.58 | 92 | 1009.2 |
| 20260502192012 | 20 | 300 | 1.6 | 11.3 | 0.00 | 0.58 | 0.58 | 92 | 1009.1 |
| 20260502191508 | 20 | 336 | 0.0 | 16.1 | 0.00 | 0.58 | 0.58 | 92 | 1009.2 |
| 20260502191010 | 20 | 238 | 6.4 | 16.1 | 0.00 | 0.58 | 0.58 | 92 | 1009.3 |
| 20260502190509 | 20 | 250 | 0.0 | 8.0 | 0.00 | 0.58 | 0.58 | 92 | 1009.3 |
| 20260502190006 | 20 | 246 | 1.6 | 11.3 | 0.00 | 0.58 | 0.58 | 92 | 1009.2 |
| 20260502185504 | 20 | 240 | 1.6 | 11.3 | 0.03 | 0.58 | 0.58 | 92 | 1009.1 |
| 20260502185007 | 20 | 263 | 0.0 | 8.0 | 0.03 | 0.58 | 0.58 | 93 | 1009.1 |
| 20260502184507 | 20 | 232 | 0.0 | 8.0 | 0.03 | 0.58 | 0.58 | 93 | 1008.9 |
| 20260502184005 | 20 | 304 | 0.0 | 4.8 | 0.03 | 0.58 | 0.58 | 93 | 1008.7 |
| 20260502183503 | 20 | 263 | 0.0 | 4.8 | 0.03 | 0.58 | 0.58 | 93 | 1008.9 |
| 20260502183109 | 20 | 262 | 0.0 | 4.8 | 0.03 | 0.58 | 0.58 | 93 | 1008.9 |
| 20260502182700 | 20 | 320 | 0.0 | 4.8 | 0.03 | 0.58 | 0.58 | 93 | 1008.9 |
| 20260502182056 | 20 | 276 | 0.0 | 4.8 | 0.03 | 0.58 | 0.58 | 93 | 1008.8 |
| 20260502181603 | 20 | 253 | 0.0 | 8.0 | 0.08 | 0.58 | 0.58 | 93 | 1008.9 |
| 20260502181055 | 20 | 252 | 0.0 | 8.0 | 0.10 | 0.58 | 0.58 | 93 | 1008.9 |
| 20260502180554 | 20 | 226 | 0.0 | 4.8 | 0.13 | 0.58 | 0.58 | 93 | 1009.1 |
| 20260502164052 | 21 | 243 | 0.0 | 4.8 | 0.33 | 0.41 | 0.41 | 93 | 1009.3 |
| 20260502163530 | 21 | 30 | 0.0 | 1.6 | 0.25 | 0.33 | 0.33 | 93 | 1009.4 |
| 20260502163036 | 21 | 15 | 0.0 | 1.6 | 0.23 | 0.30 | 0.30 | 93 | 1009.2 |
| 20260502162529 | 21 | 159 | 0.0 | 1.6 | 0.18 | 0.25 | 0.25 | 92 | 1009.3 |
| 20260502162029 | 21 | 267 | 0.0 | 1.6 | 0.10 | 0.18 | 0.18 | 92 | 1009.4 |
| 20260502161536 | 21 | 198 | 0.0 | 3.2 | 0.05 | 0.13 | 0.13 | 92 | 1009.8 |
| 20260502161035 | 21 | 158 | 0.0 | 3.2 | 0.03 | 0.10 | 0.10 | 92 | 1009.7 |
| 20260502160526 | 21 | 96 | 0.0 | 3.2 | 0.00 | 0.08 | 0.08 | 92 | 1009.8 |
| 20260502152011 | 21 | 117 | 0.0 | 1.6 | 0.08 | 0.08 | 0.08 | 92 | 1009.7 |
| 20260502151511 | 21 | 243 | 0.0 | 0.0 | 0.08 | 0.08 | 0.08 | 92 | 1010.0 |
| 20260502151009 | 21 | 243 | 0.0 | 0.0 | 0.08 | 0.08 | 0.08 | 92 | 1010.0 |
| 20260502150510 | 21 | 243 | 0.0 | 0.0 | 0.08 | 0.08 | 0.08 | 92 | 1010.0 |
| 20260502130552 | 20 | 5 | 0.0 | 0.0 | 0.00 | 0.00 | 0.00 | 89 | 1010.4 |
| 20260502130107 | 20 | 5 | 0.0 | 0.0 | 0.00 | 0.00 | 0.00 | 89 | 1010.3 |
| 20260502123543 | 20 | 108 | 0.0 | 1.6 | 0.00 | 0.00 | 0.00 | 89 | 1009.8 |
| 20260502123111 | 20 | 108 | 0.0 | 0.0 | 0.00 | 0.00 | 0.00 | 89 | 1009.8 |
| 20260502122544 | 20 | 108 | 0.0 | 0.0 | 0.00 | 0.00 | 0.00 | 89 | 1009.7 |
| 20260502122042 | 20 | 108 | 0.0 | 1.6 | 0.00 | 0.00 | 0.00 | 89 | 1009.7 |
| 20260502121546 | 20 | 108 | 0.0 | 1.6 | 0.00 | 0.00 | 0.00 | 89 | 1009.6 |
| 20260502121040 | 20 | 337 | 0.0 | 1.6 | 0.00 | 0.00 | 0.00 | 90 | 1009.6 |
| 20260502120538 | 20 | 332 | 0.0 | 1.6 | 0.00 | 0.00 | 0.00 | 90 | 1009.7 |
| 20260502115536 | 20 | 338 | 0.0 | 1.6 | 0.00 | 0.00 | 0.00 | 90 | 1009.6 |
| 20260502115034 | 20 | 75 | 0.0 | 0.0 | 0.00 | 0.00 | 0.00 | 91 | 1009.7 |
| 20260502114535 | 20 | 75 | 0.0 | 0.0 | 0.00 | 0.00 | 0.00 | 91 | 1009.6 |
| 20260502114033 | 20 | 75 | 0.0 | 0.0 | 0.00 | 0.00 | 0.00 | 91 | 1009.6 |
| 20260502113520 | 20 | 75 | 0.0 | 0.0 | 0.00 | 0.00 | 0.00 | 91 | 1009.5 |
| 20260502113020 | 20 | 58 | 0.0 | 0.0 | 0.00 | 0.00 | 0.00 | 92 | 1009.5 |
| 20260502112523 | 19 | 58 | 0.0 | 0.0 | 0.00 | 0.00 | 0.00 | 92 | 1009.7 |
| 20260502112027 | 19 | 322 | 0.0 | 0.0 | 0.00 | 0.00 | 0.00 | 92 | 1009.8 |
| 20260502111522 | 19 | 322 | 0.0 | 0.0 | 0.00 | 0.00 | 0.00 | 92 | 1009.5 |
| 20260502111018 | 19 | 322 | 0.0 | 0.0 | 0.00 | 0.00 | 0.00 | 92 | 1009.3 |
| 20260502110537 | 19 | 322 | 0.0 | 0.0 | 0.00 | 0.00 | 0.00 | 92 | 1009.2 |
| 20260502110045 | 19 | 322 | 0.0 | 0.0 | 0.00 | 0.00 | 0.00 | 92 | 1009.3 |
| 20260502105536 | 19 | 322 | 0.0 | 0.0 | 0.00 | 0.00 | 0.00 | 92 | 1009.1 |
| 20260502105036 | 18 | 326 | 0.0 | 0.0 | 0.00 | 0.00 | 0.00 | 92 | 1009.1 |
| 20260502104536 | 18 | 326 | 0.0 | 0.0 | 0.00 | 0.00 | 0.00 | 92 | 1008.9 |
| 20260502104035 | 18 | 326 | 0.0 | 0.0 | 0.00 | 0.00 | 0.00 | 92 | 1008.9 |
| 20260502103536 | 18 | 326 | 0.0 | 0.0 | 0.00 | 0.00 | 0.00 | 92 | 1008.8 |
| 20260502103034 | 18 | 326 | 0.0 | 0.0 | 0.00 | 0.00 | 0.00 | 92 | 1008.6 |
| 20260502102535 | 18 | 322 | 0.0 | 0.0 | 0.00 | 0.00 | 0.00 | 92 | 1008.6 |
| 20260502102037 | 18 | 322 | 0.0 | 0.0 | 0.00 | 0.00 | 0.00 | 92 | 1008.6 |
| 20260502101533 | 18 | 323 | 0.0 | 0.0 | 0.00 | 0.00 | 0.00 | 91 | 1008.5 |
| 20260502101032 | 18 | 322 | 0.0 | 0.0 | 0.00 | 0.00 | 0.00 | 91 | 1008.3 |
| 20260502100530 | 18 | 322 | 0.0 | 0.0 | 0.00 | 0.00 | 0.00 | 91 | 1008.2 |
| 20260502091525 | 19 | 322 | 0.0 | 1.6 | 0.00 | 0.00 | 0.00 | 91 | 1008.4 |
| 20260502091025 | 19 | 20 | 0.0 | 0.0 | 0.00 | 0.00 | 0.00 | 91 | 1007.7 |
| 20260502090520 | 19 | 20 | 0.0 | 0.0 | 0.00 | 0.00 | 0.00 | 91 | 1008.2 |
| 20260502071513 | 19 | 20 | 0.0 | 0.0 | 0.00 | 0.00 | 0.00 | 90 | 1010.5 |
| 20260502071011 | 19 | 20 | 0.0 | 0.0 | 0.00 | 0.00 | 0.00 | 90 | 1010.6 |
| 20260502070518 | 19 | 20 | 0.0 | 0.0 | 0.00 | 0.00 | 0.00 | 90 | 1010.5 |
| 20260502070014 | 19 | 20 | 0.0 | 0.0 | 0.00 | 0.00 | 0.00 | 90 | 1010.4 |
| 20260502065517 | 19 | 20 | 0.0 | 0.0 | 0.00 | 0.00 | 0.00 | 90 | 1010.2 |
| 20260502065012 | 19 | 20 | 0.0 | 0.0 | 0.00 | 0.00 | 0.00 | 90 | 1010.3 |
| 20260502064509 | 19 | 20 | 0.0 | 0.0 | 0.00 | 0.00 | 0.00 | 90 | 1010.2 |
| 20260502064009 | 19 | 20 | 0.0 | 0.0 | 0.00 | 0.00 | 0.00 | 90 | 1010.1 |
| 20260502063508 | 19 | 20 | 0.0 | 0.0 | 0.00 | 0.00 | 0.00 | 90 | 1010.1 |
| 20260502063007 | 19 | 20 | 0.0 | 0.0 | 0.00 | 0.00 | 0.00 | 89 | 1010.4 |
| 20260502062506 | 19 | 20 | 0.0 | 0.0 | 0.00 | 0.00 | 0.00 | 89 | 1010.4 |
| 20260502062006 | 19 | 20 | 0.0 | 0.0 | 0.00 | 0.00 | 0.00 | 89 | 1010.2 |
| 20260502061505 | 19 | 20 | 0.0 | 0.0 | 0.00 | 0.00 | 0.00 | 89 | 1010.4 |
| 20260502061005 | 19 | 20 | 0.0 | 0.0 | 0.00 | 0.00 | 0.00 | 89 | 1010.7 |
| 20260502060504 | 19 | 20 | 0.0 | 0.0 | 0.00 | 0.00 | 0.00 | 89 | 1010.8 |
| 20260502060005 | 19 | 20 | 0.0 | 0.0 | 0.00 | 0.00 | 0.00 | 89 | 1011.1 |
| 20260502055604 | 19 | 20 | 0.0 | 0.0 | 0.00 | 0.00 | 0.00 | 89 | 1011.0 |
| 20260502055018 | 19 | 20 | 0.0 | 0.0 | 0.00 | 0.00 | 0.00 | 89 | 1010.8 |
| 20260502054556 | 19 | 20 | 0.0 | 0.0 | 0.00 | 0.00 | 0.00 | 88 | 1010.9 |
| 20260502054054 | 19 | 20 | 0.0 | 0.0 | 0.00 | 0.00 | 0.00 | 88 | 1011.0 |
| 20260502053555 | 19 | 20 | 0.0 | 0.0 | 0.00 | 0.00 | 0.00 | 88 | 1011.1 |
| 20260502053051 | 19 | 20 | 0.0 | 0.0 | 0.00 | 0.00 | 0.00 | 88 | 1011.0 |
| 20260502052551 | 19 | 20 | 0.0 | 0.0 | 0.00 | 0.00 | 0.00 | 88 | 1011.1 |
| 20260502052059 | 20 | 20 | 0.0 | 0.0 | 0.00 | 0.00 | 0.00 | 88 | 1011.2 |
| 20260502051551 | 20 | 20 | 0.0 | 0.0 | 0.00 | 0.00 | 0.00 | 88 | 1011.3 |
| 20260502051051 | 20 | 20 | 0.0 | 0.0 | 0.00 | 0.00 | 0.00 | 87 | 1011.3 |
| 20260502050600 | 20 | 20 | 0.0 | 0.0 | 0.00 | 0.00 | 0.00 | 87 | 1011.5 |
| 20260502050045 | 20 | 20 | 0.0 | 0.0 | 0.00 | 0.00 | 0.00 | 87 | 1011.4 |
| 20260502045548 | 20 | 20 | 0.0 | 0.0 | 0.00 | 0.00 | 0.00 | 87 | 1011.3 |
| 20260502045042 | 20 | 20 | 0.0 | 0.0 | 0.00 | 0.00 | 0.00 | 87 | 1011.4 |
| 20260502044542 | 20 | 20 | 0.0 | 0.0 | 0.00 | 0.00 | 0.00 | 87 | 1011.3 |
| 20260502044044 | 20 | 20 | 0.0 | 0.0 | 0.00 | 0.00 | 0.00 | 87 | 1011.3 |
| 20260502043538 | 20 | 20 | 0.0 | 0.0 | 0.00 | 0.00 | 0.00 | 87 | 1011.3 |
| 20260502043037 | 20 | 20 | 0.0 | 0.0 | 0.00 | 0.00 | 0.00 | 86 | 1011.4 |
| 20260502042537 | 21 | 20 | 0.0 | 0.0 | 0.00 | 0.00 | 0.00 | 86 | 1011.4 |
| 20260502042037 | 21 | 20 | 0.0 | 0.0 | 0.00 | 0.00 | 0.00 | 86 | 1011.4 |
| 20260502041535 | 21 | 20 | 0.0 | 0.0 | 0.00 | 0.00 | 0.00 | 86 | 1011.6 |
| 20260502041030 | 21 | 20 | 0.0 | 0.0 | 0.00 | 0.00 | 0.00 | 85 | 1011.4 |
| 20260502040529 | 21 | 20 | 0.0 | 1.6 | 0.00 | 0.00 | 0.00 | 85 | 1011.5 |
| 20260502040029 | 21 | 20 | 0.0 | 1.6 | 0.00 | 0.00 | 0.00 | 85 | 1011.6 |
| 20260502035528 | 21 | 20 | 0.0 | 1.6 | 0.00 | 0.00 | 0.00 | 85 | 1011.5 |
| 20260502035026 | 21 | 25 | 0.0 | 1.6 | 0.00 | 0.00 | 0.00 | 85 | 1011.4 |
| 20260502034526 | 21 | 304 | 0.0 | 1.6 | 0.00 | 0.00 | 0.00 | 85 | 1011.2 |
| 20260502034026 | 21 | 304 | 0.0 | 4.8 | 0.00 | 0.00 | 0.00 | 85 | 1011.2 |
| 20260502033530 | 21 | 72 | 0.0 | 1.6 | 0.00 | 0.00 | 0.00 | 85 | 1011.4 |
| 20260502033026 | 21 | 91 | 0.0 | 3.2 | 0.00 | 0.00 | 0.00 | 85 | 1011.4 |
| 20260502032526 | 21 | 245 | 0.0 | 1.6 | 0.00 | 0.00 | 0.00 | 85 | 1011.4 |
| 20260502032024 | 21 | 207 | 0.0 | 1.6 | 0.00 | 0.00 | 0.00 | 85 | 1011.3 |
| 20260502031524 | 21 | 207 | 0.0 | 1.6 | 0.00 | 0.00 | 0.00 | 85 | 1011.3 |
| 20260502031026 | 21 | 308 | 0.0 | 3.2 | 0.00 | 0.00 | 0.00 | 85 | 1011.5 |
| 20260502030522 | 21 | 23 | 0.0 | 3.2 | 0.00 | 0.00 | 0.00 | 84 | 1010.7 |
| 20260502030030 | 21 | 293 | 0.0 | 3.2 | 0.00 | 0.00 | 0.00 | 84 | 1010.9 |
| 20260502025524 | 21 | 27 | 0.0 | 1.6 | 0.00 | 0.00 | 0.00 | 84 | 1011.4 |
| 20260502025024 | 21 | 304 | 0.0 | 4.8 | 0.00 | 0.00 | 0.00 | 84 | 1011.4 |
| 20260502024519 | 21 | 100 | 0.0 | 4.8 | 0.00 | 0.00 | 0.00 | 84 | 1011.4 |
| 20260502024018 | 21 | 335 | 0.0 | 3.2 | 0.00 | 0.00 | 0.00 | 84 | 1011.7 |
| 20260502023517 | 22 | 214 | 0.0 | 4.8 | 0.00 | 0.00 | 0.00 | 84 | 1011.7 |
| 20260502023020 | 22 | 328 | 0.0 | 4.8 | 0.00 | 0.00 | 0.00 | 84 | 1011.7 |
| 20260502022517 | 22 | 308 | 0.0 | 3.2 | 0.00 | 0.00 | 0.00 | 85 | 1012.1 |
| 20260502022018 | 22 | 356 | 0.0 | 4.8 | 0.00 | 0.00 | 0.00 | 85 | 1011.9 |
| 20260502021514 | 22 | 248 | 0.0 | 3.2 | 0.00 | 0.00 | 0.00 | 86 | 1011.3 |
| 20260502021013 | 22 | 319 | 0.0 | 3.2 | 0.00 | 0.00 | 0.00 | 86 | 1011.6 |
| 20260502020512 | 22 | 285 | 0.0 | 1.6 | 0.00 | 0.00 | 0.00 | 86 | 1011.9 |
| 20260502020014 | 22 | 268 | 0.0 | 1.6 | 0.00 | 0.00 | 0.00 | 86 | 1011.9 |
| 20260502015516 | 22 | 263 | 0.0 | 3.2 | 0.00 | 0.00 | 0.00 | 86 | 1011.7 |
| 20260502015010 | 22 | 275 | 0.0 | 3.2 | 0.00 | 0.00 | 0.00 | 86 | 1011.9 |
| 20260502014008 | 22 | 163 | 0.0 | 3.2 | 0.00 | 0.00 | 0.00 | 85 | 1011.3 |
| 20260502013507 | 23 | 167 | 0.0 | 6.4 | 0.00 | 0.00 | 0.00 | 85 | 1010.8 |
| 20260502013011 | 23 | 243 | 0.0 | 6.4 | 0.00 | 0.00 | 0.00 | 84 | 1010.8 |
| 20260502012510 | 23 | 55 | 0.0 | 4.8 | 0.00 | 0.00 | 0.00 | 83 | 1011.2 |
| 20260502012004 | 23 | 124 | 0.0 | 3.2 | 0.00 | 0.00 | 0.00 | 83 | 1011.2 |
| 20260502011505 | 23 | 263 | 0.0 | 3.2 | 0.00 | 0.00 | 0.00 | 84 | 1011.1 |
| 20260502011004 | 23 | 115 | 0.0 | 3.2 | 0.00 | 0.00 | 0.00 | 83 | 1010.9 |
| 20260502010607 | 23 | 140 | 0.0 | 3.2 | 0.00 | 0.00 | 0.00 | 82 | 1011.0 |
| 20260502010107 | 23 | 101 | 0.0 | 3.2 | 0.00 | 0.00 | 0.00 | 82 | 1010.9 |
| 20260502010005 | 23 | 307 | 0.0 | 1.6 | 0.00 | 0.00 | 0.00 | 82 | 1011.0 |
| 20260502005600 | 24 | 121 | 0.0 | 1.6 | 0.00 | 0.00 | 0.00 | 81 | 1011.2 |
| 20260502005059 | 24 | 121 | 0.0 | 3.2 | 0.00 | 0.00 | 0.00 | 81 | 1011.3 |
| 20260502004606 | 24 | 304 | 0.0 | 3.2 | 0.00 | 0.00 | 0.00 | 80 | 1011.0 |
| 20260502004505 | 24 | 304 | 0.0 | 3.2 | 0.00 | 0.00 | 0.00 | 80 | 1011.1 |
| 20260502004058 | 24 | 264 | 0.0 | 1.6 | 0.00 | 0.00 | 0.00 | 79 | 1011.0 |
| 20260502003557 | 24 | 255 | 0.0 | 1.6 | 0.00 | 0.00 | 0.00 | 80 | 1011.0 |
| 20260502003059 | 24 | 245 | 0.0 | 3.2 | 0.00 | 0.00 | 0.00 | 80 | 1011.0 |